Weather in Avesta

Sweden     60°08′41″N   16°10′22″E
temp.,
°C
wind,
m/s
gust,
m/s
humid.,
%
clouds,
%
prec.,
mm/h
press.,
hPa
HPBL,
m
20 june, sun
sun2023:00+12ne25944 0.3 1011139
02:00+12ene119262 0.3 101149
05:00+13se1296100 0.0 101174
08:00+19sw247111 0.0 1011630
11:00+24ssw35494 0.0 10111253
14:00+27s35362 0.0 10101782
17:00+29sse363521 0.0 10082366
20:00+20e2776100 0.8 1007328
21 june, mon
mon2123:00+17se3109675 2.4 1006371
02:00+18s279937 5.3 1005277
05:00+18ssw3109896 0.0 1005605
08:00+15sw478630 0.1 1007544
11:00+21ssw4750100 0.0 10081078
14:00+25sw4736100 0.0 10071647
17:00+26ssw4634100 0.0 10071621
20:00+22nnw355313 0.0 1008297
22 june, tue
tue2223:00+15ne268497 0.6 1009119
02:00+15ne398672 0.9 1009254
05:00+14ne4109699 2.5 1009412
08:00+13ne51196100 5.3 1010559
11:00+13nne3897100 3.1 1010605
14:00+13nne4997100 4.9 1010505
17:00+14n3693100 0.1 1011701
20:00+13nnw3793100 0.2 1012489
23 june, wed
wed2323:00+12nw2596100 0.4 1013349
02:00+12wnw1296100 0.4 1015141
05:00+12nw1295100 0.0 1015118
08:00+13wnw1291100 0.0 1017200
11:00+15wnw127998 0.0 1018446
14:00+22nnw125345 0.0 10181136
17:00+21ese2154100 0.0 10181302
20:00+17sse257759 0.0 1019253
24 june, thu
thu2423:00+13se119592 0.0 101911
02:00+12nnw009658 0.0 102010
05:00+13ne1194100 0.0 102021
08:00+17ene2373100 0.0 1019400
11:00+21ene23425 0.0 10191061
14:00+24e233420 0.0 10171585
17:00+25e233781 0.0 10161768
20:00+20ne47575 0.0 1016370